Location: *
(41.3833°S, 177.8333°W)
Time: 20:59:46
(UTC+00:00)

STARLINK-1201 - Pass Details

Date: 01 April 2020
Orbit: 548 x 551 km, 53.0° (Epoch: 31 May)

Event Time Altitude Azimuth Distance (km) Brightness Sun altitude
Exits shadow 17:26:52 11° 275° (W) 1,774 5.5 -8.5°
Maximum altitude 17:30:35 37° 208° (SSW) 884 4.4 -7.8°
Drops below altitude 10° 17:34:31 10° 139° (SE) 1,851 6.9 -7.1°
Sets 17:36:54 0° 130° (SE) 2,749 8.0 -6.6°
